User: anonymous   Login
Location: Unspecified
(0.0000°N, 0.0000°E)
Time: 21:28:33
(UTC+00:00)
Language:

OFEQ 9 - Orbit

View from above orbital plane
View from above orbital plane
View from above satellite
View from above satellite

Ground track
Ground track

The orbit data is extracted from the following two-line orbital elements,

1 36608U 10031A   20022.70377028 0.00001700  00000-0  64934-4 0    09
2 36608 141.7475 140.9812 0004500 152.3025 207.6967 15.25727711    01
Epoch (UTC): 22 January 2020 16:53:25
Eccentricity: 0.0004500
inclination: 141.7475°
perigee height: 485 km
apogee height: 491 km
right ascension of ascending node: 140.9812°
argument of perigee: 152.3025°
revolutions per day: 15.25727711
mean anomaly at epoch: 207.6967°
orbit number at epoch: 0

The dashed part of the orbit path shows where the satellite is in the earth's shadow,  

DLR